Location: Pallagorio
(39.3000°N, 16.9000°E)
Time: 01:37:55
(UTC+00:00)

CREW DRAGON DEMO-1 DEB - Pass Details

Date: 24 January 2021
Orbit: 332 x 336 km, 51.6° (Epoch: 08 March)

Event Time Altitude Azimuth Distance (km) Brightness Sun altitude
Rises 17:34:45 0° 307° (NW) 2,168 7.3 -17.6°
Reaches altitude 10° 17:36:47 10° 306° (NW) 1,316 6.2 -18.0°
Maximum altitude 17:39:43 80° 220° (SW) 357 2.6 -18.5°
Enters shadow 17:39:50 77° 183° (S) 360 2.6 -18.6°
